774  
NZUS01 KOTX 241925  
RWROTX  
 
EASTERN WASHINGTON/NORTHERN IDAHO ROUNDUP  
NATIONAL WEATHER SERVICE, SPOKANE WA  
1100 AM PST SAT FEB 24 2018  
 
NOTE: "FAIR" INDICATED FEW OR NO CLOUDS BELOW 12,000 FEET WITH NO  
SIGNIFICANT WEATHER AND/OR S TO VISIBILITY
.  
   
..NORTHEAST WASHINGTON AND NORTHERN IDAHO PANHANDLE
 
 
 
CITY SKY/WX TMP DP RH WIND PRES REMARKS
 
SPOKANE INTL FLURRIES 25 24 96 NE9 29.84R WCI 15  
SPOKANE DOWNTO LGT SNOW 28 25 88 S3 29.88R  
COEUR D ALENE LGT SNOW 28 23 81 N12 29.86R WCI 18  
DEER PARK CLOUDY 26 20 77 N10 29.87R WCI 16  
SANDPOINT N/A 28 21 74 N8 29.88S WCI 20  
BONNERS FERRY FAIR 25 18 74 SW3 29.87S  
   
..SOUTHEAST WASHINGTON AND SOUTHERN IDAHO PANHANDLE
 
 
 
CITY SKY/WX TMP DP RH WIND PRES REMARKS
 
WALLA WALLA CLOUDY 39 32 76 W14 29.93R  
PULLMAN/MOSCOW HVY SNOW 30 30 100 NE7 29.84R VSB 1/4 WCI 23  
LEWISTON CLOUDY 35 29 78 VRB5 29.87R  
LOWELL N/A 28 26 92 CALM 29.94S  
GRANGEVILLE CLOUDY 28 21 74 S23G33 29.78F WCI 14  
   
..COLUMBIA BASIN
 
 
 
CITY SKY/WX TMP DP RH WIND PRES REMARKS
 
EPHRATA MOSUNNY 33 23 66 N16 29.93R WCI 23  
MOSES LAKE PTSUNNY 34 25 69 N14 29.93R WCI 25  
PASCO PTSUNNY 38 27 64 NW15 29.96R  
RICHLAND CLOUDY 39 28 64 N7 29.98R  
HERMISTON CLOUDY 44 31 60 W24G31 29.95R  
PENDLETON CLOUDY 40 30 67 W26G39 29.91R  
   
..EAST SLOPES CASCADES
 
 
 
CITY SKY/WX TMP DP RH WIND PRES REMARKS
 
THE DALLES MOSUNNY 42 30 62 W28G37 30.04R  
YAKIMA SUNNY 42 26 53 CALM 29.93R  
ELLENSBURG SUNNY 40 27 59 NW29G35 29.89R  
STAMPEDE PASS SNOW 26 24 92 SW8 29.88R VSB 1/2 WCI 18  
WENATCHEE SUNNY 30 21 69 W12 29.94R WCI 20  
WINTHROP FAIR 22 13 67 CALM 29.95R  
OMAK SUNNY 31 24 75 N15 29.95R WCI 20  
SUNNYSIDE PTCLDY 43 25 49 W12 29.94R  
   
..SOUTHERN BRITISH COLUMBIA
 
 
 
CITY SKY/WX TMP DP RH WIND PRES REMARKS
 
PENTICTON PTSUNNY 28 21 74 N7 30.00R WCI 21  
CASTLEGAR PTSUNNY 28 18 64 N5 29.93F WCI 23  
CRANBROOK MOSUNNY 19 9 63 N5 29.85F WCI 13  
OSOYOOS N/A 30 23 74 NE5 N/A WCI 25  
CRESTON N/A 30 19 64 W5 N/A WCI 25  
   
..WESTERN MONTANA
 
 
 
CITY SKY/WX TMP DP RH WIND PRES REMARKS
 
KALISPELL CLOUDY 22 18 85 SW3 29.83F  
LIBBY N/A 25 18 74 CALM 29.85F  
MISSOULA LGT SNOW 21 14 74 CALM 29.81F  
   
..NEIGHBORING CITIES
 
 
 
CITY SKY/WX TMP DP RH WIND PRES REMARKS
 
SEATTLE CLOUDY 41 32 70 N9 30.08R  
PORTLAND PTSUNNY 45 34 65 W13 30.16R  
BOISE SNOW 28 25 88 SE13G25 29.95F VSB 1/2 WCI 17  
GREAT FALLS PTSUNNY 25 13 60 SW17 29.69S WCI 12  
CALGARY PTSUNNY 28 1 31 W16G23 29.61S WCI 17  
 
CLICK HERE TO GO TO PREVIOUS BULLETINS.

The Nexlab WA Page
The Nexlab ID Page Main Text Page